Weather in Keles

Uzbekistan     41°24′20″N   69°12′26″E
temp.,
°C
wind,
m/s
gust,
m/s
humid.,
%
clouds,
%
prec.,
mm/h
press.,
hPa
HPBL,
m
16 may, sun
sun1623:00+19e22540 0.0 101048
02:00+18e22580 0.0 101043
05:00+17ese23560 0.0 101071
08:00+21sse46380 0.0 1012424
11:00+26ssw34270 0.0 10121214
14:00+29sw11170 0.0 10111970
17:00+29nne22170 0.0 10102025
20:00+22ne34490 0.0 101088
17 may, mon
mon1723:00+20e34410 0.0 101175
02:00+18e46390 0.0 101195
05:00+18ene46360 0.0 101187
08:00+24ese34310 0.0 1012225
11:00+30s22160 0.0 10121320
14:00+32nnw22120 0.0 10113683
17:00+31nne43140 0.0 10103035
20:00+24ne47370 0.0 1010136
18 may, tue
tue1823:00+22ene34320 0.0 101070
02:00+20e343064 0.0 100978
05:00+20ene3431100 0.0 100954
08:00+25e232769 0.0 1009222
11:00+31w11160 0.0 10082042
14:00+33wsw25124 0.0 10074290
17:00+32wsw43143 0.0 10063998
20:00+26n33242 0.0 100754
19 may, wed
wed1923:00+23se23280 0.0 100780
02:00+21ene34290 0.0 100768
05:00+21ene35250 0.0 100675
08:00+25e34290 0.2 1007205
11:00+31s33180 0.2 10061308
14:00+34wsw48115 0.0 10054488
17:00+33sw55122 0.0 10043483
20:00+26nnw232113 0.0 100582
20 may, thu
thu2023:00+23e222688 0.0 100652
02:00+21e342539 0.0 100666
05:00+20ene3325100 0.0 100647
08:00+25e232472 0.0 1007186
11:00+31ssw221474 0.0 10071366
14:00+33nnw351287 0.0 10064080
17:00+31nne64191 0.0 10062277
20:00+26e2328100 0.0 1007142